GW0458 Weather Reports


time (UTC)temp
C
wind
direction
speed
KPH
gust
KPH
rain 1hr
cm
rain 24hr
cm
rain mn
cm
humidity
%
barometer
mb
20260903094200 11 156 1.6 1.6 0.00 0.00 0.00 98 1015.9
20260903091155 11 196 1.6 1.6 0.00 0.00 0.00 97 1015.8
20260903084155 11 194 0.0 1.6 0.00 0.00 0.00 98 1015.2
20260903081154 11 189 4.8 4.8 0.00 0.00 0.00 95 1015.5
20260903074154 11 186 1.6 1.6 0.00 0.00 0.00 95 1015.4
20260903071151 12 208 1.6 1.6 0.00 0.00 0.00 94 1015.3
20260903064147 12 200 0.0 0.0 0.00 0.00 0.00 97 1015.2
20260903061146 11 186 3.2 3.2 0.00 0.00 0.00 99 1015.1
20260903054147 12 191 1.6 1.6 0.00 0.00 0.00 98 1015.4
20260903051143 12 171 4.8 4.8 0.00 0.00 0.00 99 1015.3
20260903044142 12 185 0.0 1.6 0.00 0.00 0.00 98 1015.4
20260903041142 13 179 1.6 3.2 0.00 0.00 0.00 98 1015.1
20260903034142 13 134 1.6 3.2 0.00 0.00 0.00 99 1014.9
20260903031141 13 198 0.0 0.0 0.00 0.00 0.00 99 1014.4
20260903024141 13 187 1.6 3.2 0.00 0.00 0.00 98 1013.9
20260903021137 13 193 1.6 1.6 0.00 0.00 0.00 99 1013.8
20260903014135 14 203 0.0 0.0 0.00 0.00 0.00 99 1013.5
20260903011134 13 206 1.6 1.6 0.00 0.00 0.00 99 1012.9
20260903004131 15 206 0.0 0.0 0.00 0.00 0.00 99 1012.7
20260903001130 15 197 1.6 1.6 0.00 0.00 0.00 98 1012.1
20260902234130 15 202 4.8 4.8 0.00 0.00 0.00 99 1011.8
20260902231130 15 108 3.2 3.2 0.00 0.00 0.00 99 1012.3
20260902224125 15 193 3.2 3.2 0.00 0.00 0.00 98 1012.2
20260902221125 15 201 0.0 0.0 0.00 0.00 0.00 98 1012.5
20260902214123 16 207 0.0 0.0 0.00 0.00 0.00 94 1012.5
20260902211119 16 208 0.0 0.0 0.00 0.00 0.00 95 1012.5
20260902204115 17 208 0.0 0.0 0.00 0.00 0.00 91 1012.2
20260902201114 16 207 0.0 0.0 0.00 0.00 0.00 95 1012.6
20260902194113 17 199 0.0 1.6 0.00 0.00 0.00 86 1013.1
20260902191113 20 210 0.0 1.6 0.00 0.00 0.00 66 1012.7
20260902184109 20 176 4.8 8.0 0.00 0.00 0.00 70 1013.0
20260902181106 17 176 3.2 3.2 0.00 0.00 0.00 77 1013.1
20260902174101 17 187 1.6 1.6 0.00 0.00 0.00 77 1013.6
20260902171100 17 187 1.6 1.6 0.00 0.00 0.00 78 1013.7
20260902164056 17 193 1.6 1.6 0.00 0.00 0.00 79 1013.8
20260902161054 17 202 0.0 1.6 0.00 0.00 0.00 81 1014.2
20260902154050 16 201 1.6 1.6 0.00 0.00 0.00 88 1014.3
20260902151048 15 207 0.0 0.0 0.00 0.00 0.00 97 1014.9
20260902144048 13 203 0.0 0.0 0.00 0.00 0.00 99 1015.2
20260902141049 13 198 3.2 3.2 0.00 0.00 0.00 99 1015.3
20260902134046 13 190 1.6 1.6 0.00 0.00 0.00 99 1015.6
20260902131045 13 190 0.0 0.0 0.00 0.00 0.00 99 1015.6
20260902124042 14 186 0.0 0.0 0.00 0.00 0.00 99 1015.9
20260902121040 14 185 0.0 0.0 0.00 0.00 0.00 99 1015.8
20260902114036 14 121 1.6 1.6 0.00 0.00 0.00 99 1016.3
20260902111033 14 189 1.6 1.6 0.00 0.00 0.00 99 1016.3
20260902104032 14 186 3.2 3.2 0.00 0.00 0.00 99 1016.6
20260902101028 14 197 1.6 1.6 0.00 0.00 0.00 99 1016.8